Location: Balagbag Mahabang Kahoy
(14.1562°N, 120.9200°E)
Time: 04:45:26
(UTC+00:00)

COSMO-SKYMED 1 - Pass Details

Date: 16 January 2026
Orbit: 577 x 579 km, 97.9° (Epoch: 15 February)

Event Time Altitude Azimuth Distance (km) Brightness Sun altitude
Rises 21:42:14 0° 165° (SSE) 2,785 6.4 -10.5°
Reaches altitude 10° 21:44:23 10° 164° (SSE) 1,887 5.6 -10.0°
Maximum altitude 21:48:28 77° 78° (ENE) 597 2.6 -9.0°
Drops below altitude 10° 21:52:33 10° 352° (N) 1,889 4.8 -8.1°
Sets 21:54:42 0° 351° (N) 2,788 5.6 -7.6°
